N3OUC-2 Weather Reports


Display with metric or nautical units.
time (UTC)temp
F
wind
direction
speed
MPH
gust
MPH
rain 1hr
in
rain 24hr
in
rain mn
in
humidity
%
barometer
mb
20260505153005 76 245 9.0 20.0 0.00 0.01 0.01 46 1010.2
20260505151005 76 246 3.0 12.0 0.00 0.01 0.01 50 1010.4
20260505125004 64 157 6.0 10.0 0.00 0.01 0.01 69 1011.2
20260505123004 63 178 4.0 12.0 0.00 0.01 0.01 71 1010.8
20260505122008 62 181 3.0 12.0 0.00 0.01 0.01 73 1010.8
20260505121004 61 139 2.0 8.0 0.00 0.01 0.01 73 1010.9
20260505120005 60 171 2.0 8.0 0.00 0.01 0.01 77 1010.9
20260505115004 59 190 2.0 9.0 0.00 0.01 0.01 78 1010.8
20260505113004 56 151 3.0 12.0 0.00 0.01 0.01 84 1010.7
20260505112004 55 173 6.0 12.0 0.00 0.01 0.01 87 1010.5
20260505111004 54 163 3.0 12.0 0.00 0.01 0.01 91 1010.4
20260505101004 51 151 2.0 6.0 0.00 0.01 0.01 92 1010.3
20260505100004 52 146 2.0 3.0 0.01 0.01 0.01 92 1010.2
20260505095004 52 146 3.0 3.0 0.01 0.01 0.01 91 1010.1
20260505094003 53 154 2.0 3.0 0.01 0.01 0.01 90 1010.2
20260505093004 53 153 1.0 3.0 0.01 0.01 0.01 89 1010.3
20260505092004 54 170 3.0 5.0 0.01 0.01 0.01 88 1010.3
20260505091004 55 94 3.0 5.0 0.01 0.01 0.01 86 1010.2
20260505085004 57 168 1.0 3.0 0.00 0.00 0.00 78 1010.4
20260505083004 58 200 1.0 3.0 0.00 0.00 0.00 69 1010.2
20260505082004 58 221 1.0 12.0 0.00 0.00 0.00 68 1010.1
20260505081004 58 217 5.0 12.0 0.00 0.00 0.00 67 1009.7
20260505080004 59 166 8.0 14.0 0.00 0.00 0.00 66 1009.6
20260505075004 59 154 5.0 13.0 0.00 0.00 0.00 66 1009.6
20260505074004 58 178 6.0 12.0 0.00 0.00 0.00 66 1009.7
20260505073004 58 192 2.0 7.0 0.00 0.00 0.00 66 1009.7
20260505071003 58 207 2.0 7.0 0.00 0.00 0.00 65 1009.8
20260505070004 58 165 3.0 9.0 0.00 0.00 0.00 65 1009.8
20260505065004 58 107 1.0 3.0 0.00 0.00 0.00 65 1009.8
20260505064004 58 180 3.0 7.0 0.00 0.00 0.00 64 1009.8
20260505062006 58 188 2.0 6.0 0.00 0.00 0.00 62 1010.0
20260505061008 58 196 4.0 7.0 0.00 0.00 0.00 62 1010.0
20260505060005 58 234 1.0 6.0 0.00 0.00 0.00 61 1010.1
20260505055005 58 245 2.0 7.0 0.00 0.00 0.00 61 1009.9
20260505054006 58 189 4.0 12.0 0.00 0.00 0.00 60 1009.9
20260505053005 58 171 5.0 15.0 0.00 0.00 0.00 60 1009.7
20260505052006 59 174 7.0 20.0 0.00 0.00 0.00 59 1009.7
20260505051005 59 171 9.0 20.0 0.00 0.00 0.00 59 1009.6
20260505041005 60 172 7.0 16.0 0.00 0.00 0.00 55 1009.7
20260505040005 61 166 7.0 17.0 0.00 0.00 0.00 54 1009.6
20260505035006 61 171 9.0 18.0 0.00 0.00 0.00 53 1009.4
20260505034006 61 173 5.0 16.0 0.00 0.00 0.00 53 1009.4
20260505033005 62 161 7.0 18.0 0.00 0.00 0.00 52 1009.5
20260505032005 62 162 9.0 16.0 0.00 0.00 0.00 52 1009.5
20260505031006 62 171 6.0 13.0 0.00 0.00 0.00 51 1009.6
20260505030005 62 170 8.0 13.0 0.00 0.00 0.00 51 1009.7
20260505025005 62 162 5.0 10.0 0.00 0.00 0.00 51 1009.6
20260505024005 62 157 6.0 13.0 0.00 0.00 0.00 51 1009.6
20260505023005 62 166 7.0 13.0 0.00 0.00 0.00 51 1009.7
20260505022005 63 173 7.0 15.0 0.00 0.00 0.00 51 1009.9
20260505021005 63 161 7.0 14.0 0.00 0.00 0.00 50 1010.0
20260505020006 63 162 6.0 17.0 0.00 0.00 0.00 50 1010.0
20260505015006 63 155 5.0 12.0 0.00 0.00 0.00 50 1010.0
20260505014005 63 165 5.0 12.0 0.00 0.00 0.00 50 1009.9
20260505013005 63 162 7.0 12.0 0.00 0.00 0.00 50 1009.8
20260505012005 63 169 6.0 15.0 0.00 0.00 0.00 50 1009.8
20260505011005 63 154 5.0 13.0 0.00 0.00 0.00 49 1009.7
20260505010006 63 171 5.0 12.0 0.00 0.00 0.00 49 1009.6
20260505005005 64 168 6.0 16.0 0.00 0.00 0.00 48 1009.6
20260505004005 64 171 6.0 12.0 0.00 0.00 0.00 47 1009.6
20260505003005 64 164 6.0 13.0 0.00 0.00 0.00 48 1009.5
20260505002006 64 188 5.0 10.0 0.00 0.00 0.00 47 1009.4
20260505001005 65 174 5.0 12.0 0.00 0.00 0.00 46 1009.4
20260505000005 66 168 5.0 12.0 0.00 0.00 0.00 45 1009.3
20260504234005 66 185 5.0 13.0 0.00 0.00 0.00 45 1009.2
20260504233005 67 186 7.0 17.0 0.00 0.00 0.00 43 1009.1
20260504232005 67 185 9.0 15.0 0.00 0.00 0.00 43 1009.0
20260504231005 68 171 9.0 18.0 0.00 0.00 0.00 42 1009.0
20260504230005 68 195 11.0 18.0 0.00 0.00 0.00 42 1008.8
20260504225005 69 177 11.0 17.0 0.00 0.00 0.00 42 1008.8
20260504224005 69 172 4.0 13.0 0.00 0.00 0.00 43 1008.8
20260504222005 70 178 7.0 17.0 0.00 0.00 0.00 43 1008.9
20260504221005 70 199 5.0 15.0 0.00 0.00 0.00 42 1009.0
20260504215005 72 224 7.0 16.0 0.00 0.00 0.00 36 1008.8
20260504214005 72 243 7.0 15.0 0.00 0.00 0.00 36 1008.9
20260504213005 72 185 7.0 12.0 0.00 0.00 0.00 37 1008.9
20260504212005 73 207 5.0 12.0 0.00 0.00 0.00 36 1009.0
20260504211005 71 203 4.0 15.0 0.00 0.00 0.00 39 1009.0
20260504210005 71 222 3.0 17.0 0.00 0.00 0.00 40 1009.1
20260504204005 71 257 6.0 17.0 0.00 0.00 0.00 37 1009.2
20260504203004 70 202 7.0 18.0 0.00 0.00 0.00 39 1009.3
20260504202005 71 237 8.0 20.0 0.00 0.00 0.00 38 1009.4
20260504201005 70 216 11.0 24.0 0.00 0.00 0.00 39 1009.5
20260504200004 71 192 9.0 15.0 0.00 0.00 0.00 38 1009.5
20260504195005 71 238 10.0 20.0 0.00 0.00 0.00 38 1009.6
20260504194005 71 215 10.0 24.0 0.00 0.00 0.00 37 1009.7
20260504193005 71 225 6.0 20.0 0.00 0.00 0.00 40 1009.8
20260504190005 70 201 7.0 14.0 0.00 0.00 0.00 41 1009.9
20260504185004 70 170 6.0 20.0 0.00 0.00 0.00 41 1010.2
20260504184004 70 217 5.0 20.0 0.00 0.00 0.00 41 1010.5
20260504183004 69 224 11.0 17.0 0.00 0.00 0.00 39 1010.4
20260504181004 69 217 7.0 20.0 0.00 0.00 0.00 42 1010.7
20260504180005 68 203 9.0 20.0 0.00 0.00 0.00 40 1010.8
20260504175004 68 213 6.0 21.0 0.00 0.00 0.00 41 1011.0
20260504174005 69 265 11.0 20.0 0.00 0.00 0.00 39 1011.1
20260504173004 68 183 6.0 22.0 0.00 0.00 0.00 40 1011.2
20260504171004 67 230 9.0 14.0 0.00 0.00 0.00 39 1011.5